FW9712 Weather Reports


time (UTC)temp
C
wind
direction
speed
KPH
gust
KPH
rain 1hr
cm
rain 24hr
cm
rain mn
cm
humidity
%
barometer
mb
20260502163203 21 72 0.0 1.6 0.00 0.20 0.20 77 1015.5
20260502162224 21 12 0.0 1.6 0.00 0.20 0.20 75 1015.5
20260502161204 21 12 0.0 0.0 0.00 0.20 0.20 73 1015.7
20260502160204 21 12 0.0 1.6 0.00 0.20 0.20 73 1015.8
20260502151042 21 355 0.0 1.6 0.00 0.20 0.20 79 1016.4
20260502123731 22 232 4.8 12.9 1.50 0.10 0.15 65 1018.5
20260502122739 23 232 4.8 8.0 0.30 0.05 0.08 57 1018.2
20260502120621 25 234 3.2 8.0 0.00 0.00 0.00 40 1018.0
20260502115552 25 242 3.2 8.0 0.00 0.00 0.00 40 1018.3
20260502113519 26 182 0.0 6.4 0.00 0.00 0.00 43 1018.5
20260502112538 25 140 1.6 9.7 0.00 0.00 0.00 43 1018.7
20260502111509 25 190 1.6 6.4 0.00 0.00 0.00 45 1018.9
20260502110502 25 150 3.2 9.7 0.00 0.00 0.00 44 1018.9
20260502105430 25 171 1.6 9.7 0.00 0.00 0.00 45 1019.1
20260502103223 24 157 1.6 11.3 0.00 0.00 0.00 46 1019.4
20260502102219 24 234 1.6 9.7 0.00 0.00 0.00 46 1019.5
20260502101237 23 198 0.0 6.4 0.00 0.00 0.00 47 1019.6
20260502100300 23 187 1.6 6.4 0.00 0.00 0.00 46 1019.6
20260502090924 22 204 0.0 1.6 0.00 0.00 0.00 48 1020.1
20260502071235 15 164 0.0 1.6 0.00 0.00 0.00 59 1020.6
20260502070201 15 158 0.0 6.4 0.00 0.00 0.00 58 1020.6
20260502063953 15 134 1.6 4.8 0.00 0.00 0.00 63 1020.5
20260502062938 13 183 0.0 3.2 0.00 0.00 0.00 65 1020.6
20260502061911 13 160 0.0 0.0 0.00 0.00 0.00 66 1020.6
20260502060926 12 209 0.0 1.6 0.00 0.00 0.00 69 1020.7
20260502055940 12 237 0.0 1.6 0.00 0.00 0.00 69 1020.7
20260502054943 12 243 0.0 1.6 0.00 0.00 0.00 70 1020.6
20260502053947 11 206 0.0 1.6 0.00 0.00 0.00 74 1020.5
20260502052924 10 114 0.0 0.0 0.00 0.00 0.00 78 1020.5
20260502051858 10 114 0.0 0.0 0.00 0.00 0.00 78 1020.6
20260502050848 9 114 0.0 0.0 0.00 0.00 0.00 78 1020.7
20260502045901 8 114 0.0 0.0 0.00 0.00 0.00 82 1020.6
20260502044905 7 114 0.0 0.0 0.00 0.00 0.00 83 1020.6
20260502043850 7 114 0.0 0.0 0.00 0.00 0.00 83 1020.5
20260502042819 7 114 0.0 0.0 0.00 0.00 0.00 82 1020.5
20260502040736 7 114 0.0 0.0 0.00 0.00 0.00 82 1020.6
20260502035726 7 114 0.0 0.0 0.00 0.00 0.00 82 1020.6
20260502031343 8 114 0.0 0.0 0.00 0.00 0.00 77 1020.8
20260502030332 8 114 0.0 0.0 0.00 0.00 0.00 76 1020.9
20260502025323 8 114 0.0 1.6 0.00 0.00 0.00 75 1021.0
20260502024255 8 114 0.0 0.0 0.00 0.00 0.00 75 1021.1
20260502023234 9 113 0.0 1.6 0.00 0.00 0.00 74 1021.2
20260502021111 10 112 0.0 0.0 0.00 0.00 0.00 72 1021.2
20260502014945 10 112 0.0 0.0 0.00 0.00 0.00 68 1021.3
20260502013958 10 112 0.0 0.0 0.00 0.00 0.00 69 1021.5
20260502012955 10 112 0.0 0.0 0.00 0.00 0.00 68 1021.5
20260502012006 10 112 0.0 0.0 0.00 0.00 0.00 68 1021.5
20260502005849 11 112 0.0 0.0 0.00 0.00 0.00 65 1021.6
20260502003648 11 115 0.0 4.8 0.00 0.00 0.00 65 1021.8
20260502002636 11 123 0.0 4.8 0.00 0.00 0.00 66 1021.9
20260502001628 11 119 0.0 4.8 0.00 0.00 0.00 66 1022.0
20260502000630 11 121 0.0 1.6 0.00 0.00 0.00 66 1022.2
20260501235619 11 121 0.0 0.0 0.00 0.00 0.00 66 1022.3
20260501234551 11 121 0.0 0.0 0.00 0.00 0.00 66 1022.4
20260501233524 11 121 0.0 1.6 0.00 0.00 0.00 65 1022.6
20260501232531 11 121 0.0 0.0 0.00 0.00 0.00 65 1022.6
20260501231556 11 121 0.0 1.6 0.00 0.00 0.00 66 1022.6
20260501225422 11 121 0.0 0.0 0.00 0.00 0.00 68 1022.6
20260501224350 11 121 0.0 0.0 0.00 0.00 0.00 68 1022.7
20260501222233 12 121 0.0 0.0 0.00 0.00 0.00 67 1022.6
20260501221233 12 121 0.0 0.0 0.00 0.00 0.00 68 1022.7
20260501220212 12 121 0.0 0.0 0.00 0.00 0.00 66 1022.7
20260501215231 13 121 0.0 0.0 0.00 0.00 0.00 65 1022.7
20260501214226 13 121 0.0 0.0 0.00 0.00 0.00 63 1022.7
20260501213244 13 121 0.0 0.0 0.00 0.00 0.00 62 1022.7
20260501212305 14 121 0.0 0.0 0.00 0.00 0.00 57 1022.7
20260501211308 14 121 0.0 0.0 0.00 0.00 0.00 55 1022.7
20260501205051 16 121 0.0 0.0 0.00 0.00 0.00 50 1022.8
20260501204116 16 121 0.0 0.0 0.00 0.00 0.00 46 1022.8
20260501202007 16 121 0.0 0.0 0.00 0.00 0.00 44 1022.8
20260501200944 16 121 0.0 0.0 0.00 0.00 0.00 44 1022.8
20260501192535 18 111 0.0 0.0 0.00 0.00 0.00 40 1022.5
20260501190410 19 111 0.0 1.6 0.00 0.00 0.00 36 1022.5
20260501185402 20 111 0.0 4.8 0.00 0.00 0.00 34 1022.5
20260501184348 20 94 0.0 9.7 0.00 0.00 0.00 33 1022.5
20260501183318 21 121 3.2 11.3 0.00 0.00 0.00 31 1022.4
20260501182255 21 82 3.2 11.3 0.00 0.00 0.00 32 1022.5
20260501181242 21 137 3.2 9.7 0.00 0.00 0.00 31 1022.4
20260501180229 21 165 3.2 9.7 0.00 0.00 0.00 30 1022.4
20260501175155 21 119 1.6 8.0 0.00 0.00 0.00 30 1022.4
20260501174125 22 100 1.6 11.3 0.00 0.00 0.00 30 1022.3
20260501173108 22 67 3.2 11.3 0.00 0.00 0.00 29 1022.3
20260501172100 22 175 1.6 16.1 0.00 0.00 0.00 29 1022.3
20260501171124 22 123 3.2 16.1 0.00 0.00 0.00 28 1022.3